Regional Weather Roundup
Issued by NWS

Home | Current Version | Previous Version | Graphics & Text | Print | Product List | Glossary On
Versions: 1 2 3 4 5 6 7 8 9 10 11 12 13 14 15 16 17 18 19 20 21 22 23 24 25 26 27
000
ASUS45 KCYS 180810
RWRWY

WYOMING REGIONAL WEATHER ROUNDUP
NATIONAL WEATHER SERVICE CHEYENNE WY
200 AM MDT FRI APR 18 2014

NOTE:  "FAIR" INDICATES FEW OR NO CLOUDS BELOW 12,000 FEET
WITH NO SIGNIFICANT WEATHER AND/OR OBSTRUCTIONS TO VISIBILITY.

WYZ001-180900-
YELLOWSTONE NATIONAL PARK

CITY           SKY/WX    TMP DP  RH WIND       PRES   REMARKS
LK YELLOWSTONE   N/A     26  22  84 CALM      29.93F
W YELLOWSTONE  NOT AVBL

$$
WYZ002>013-054>058-071-098>099-180900-
NORTHERN WYOMING

CITY           SKY/WX    TMP DP  RH WIND       PRES   REMARKS
JACKSON        CLOUDY    37  27  65 CALM      29.90F
CODY           PTCLDY    45  25  45 SW16      29.80S
GREYBULL       CLEAR     44  31  60 E5        29.79F
WORLAND        CLEAR     39  32  76 N8        29.80F WCI  33
SHERIDAN       MOCLDY    35  31  85 CALM      29.77F
BUFFALO        PTCLDY    42  28  57 W12       29.81F
GILLETTE       CLOUDY    43  35  73 S16       29.83F
HULETT         PTSUNNY  N/A N/A N/A W3        29.86
NEWCASTLE      FAIR      46  32  57 E10       29.87

$$
WYZ014>020-022>026-101>103-180900-
CENTRAL WYOMING

CITY           SKY/WX    TMP DP  RH WIND       PRES   REMARKS
BIG PINEY      CLOUDY    33  22  63 VRB3      29.99S
PINEDALE       PTSUNNY   30  28  93 CALM      29.99F
DUBOIS         PTSUNNY   36  21  55 NW13      29.91F WCI  27
LANDER         PTCLDY    46  24  42 SE5       29.87F
RIVERTON       PTCLDY    42  21  43 W5        29.88F
CASPER         CLEAR     43  25  49 SW14      29.88F
DOUGLAS        PTCLDY    40  32  73 E6        29.89F

$$
WYZ021-027>030-104>119-180900-
SOUTHERN WYOMING

CITY           SKY/WX    TMP DP  RH WIND       PRES   REMARKS
EVANSTON       MOCLDY    47  24  40 SW10      29.96F
KEMMERER       PTSUNNY   36  27  69 N7        29.98F WCI  30
FORT BRIDGER   FAIR      44  24  45 SE6       30.00F
ROCK SPRINGS   CLEAR     44  20  38 SE8       29.99F
DIXON          FAIR      36  26  65 CALM      30.07F
RAWLINS        PTCLDY    45  20  36 SW18G30   29.99F
SARATOGA       FAIR      43  21  42 S10G17    30.03S
LARAMIE        PTCLDY    40  22  48 S14       30.01F WCI  32
CHEYENNE       PTCLDY    39  31  72 W3        30.00F
TORRINGTON     CLEAR     43  34  70 S10       29.91F
PINE BLUFFS    FAIR      37  34  87 S14       29.99F WCI  29

$$



USA.gov is the U.S. government's official web portal to all federal, state and local government web resources and services.